Change the Weather History Date:

Wednesday, January 25, 2012

  Actual Average Record
Temperature  
Mean Temperature 37 °F 29 °F  
Max Temperature 58 °F 40 °F 72 °F (1946)
Min Temperature 15 °F 17 °F -9 °F (1949)
Degree Days  
Heating Degree Days 28    
Month to date heating degree days 788  
Cooling Degree Days 0    
Month to date cooling degree days 0  
Moisture  
Dew Point 18 °F    
Average Humidity 55    
Maximum Humidity 92    
Minimum Humidity 17    
Precipitation  
Precipitation 0.00 in 0.02 in 0.17 in (1980)
Month to date precipitation 0.03 0.23  
Year to date precipitation 0.23  
Sea Level Pressure  
Sea Level Pressure 30.13 in    
Wind  
Wind Speed 12 mph (West)    
Max Wind Speed 20 mph    
Max Gust Speed 37 mph    
Visibility 10 miles    
Events      
T = Trace of Precipitation, MM = Missing Value Source: NWS Daily Summary

Daily Weather History Graph

Daily Weather History Graph

Search for Another Location

Airport or City:

Trip Planner

Search our weather history database for the weather conditions in past years. The results will help you decide how hot, cold, wet, or windy it might be!

Date:

Astronomy

Jan. 25, 2012 Rise Set
Actual Time 7:07 AM MST 5:02 PM MST
Civil Twilight 6:38 AM MST 5:31 PM MST
Nautical Twilight 6:05 AM MST 6:04 PM MST
Astronomical Twilight 5:33 AM MST 6:37 PM MST
Moon 8:08 AM MST (1/25) 7:58 PM MST (1/25)
Length of Visible Light 10h 53m
Length of Day
9h 54m
Waxing Crescent, 7% of the Moon is Illuminated
Jan 25
Waxing Crescent
Jan 30
First Quarter
Feb 7
Full
Feb 14
Last Quarter
Feb 21
New

Hourly Weather History & Observations

Time (MST) Temp. Windchill Dew Point Humidity Pressure Visibility Wind Dir Wind Speed Gust Speed Precip Events Conditions
12:53 AM 18.0 °F 7.7 °F 14.0 °F 84% 30.27 in 10.0 mi WSW 8.1 mph - N/A   Clear
1:53 AM 17.1 °F 7.6 °F 14.0 °F 88% 30.27 in 10.0 mi SW 6.9 mph - N/A   Clear
2:53 AM 19.0 °F 8.2 °F 15.1 °F 85% 30.27 in 10.0 mi SW 9.2 mph - N/A   Clear
3:53 AM 21.0 °F 9.9 °F 15.1 °F 78% 30.26 in 10.0 mi SSW 10.4 mph - N/A   Clear
4:53 AM 21.0 °F 10.6 °F 14.0 °F 74% 30.24 in 10.0 mi South 9.2 mph - N/A   Clear
5:53 AM 21.0 °F 9.3 °F 12.9 °F 71% 30.23 in 10.0 mi SSW 11.5 mph - N/A   Clear
6:53 AM 23.0 °F 11.1 °F 14.0 °F 68% 30.22 in 10.0 mi SW 12.7 mph - N/A   Clear
7:53 AM 26.1 °F 14.0 °F 19.0 °F 75% 30.19 in 10.0 mi SW 15.0 mph - N/A   Clear
8:53 AM 28.0 °F 15.7 °F 21.9 °F 78% 30.17 in 10.0 mi WSW 17.3 mph - N/A   Clear
9:53 AM 32.0 °F 20.8 °F 23.0 °F 69% 30.14 in 10.0 mi WSW 17.3 mph - N/A   Clear
10:53 AM 37.9 °F 27.9 °F 23.0 °F 55% 30.07 in 10.0 mi WSW 19.6 mph - N/A   Clear
12:53 PM 51.1 °F - 16.0 °F 25% 29.98 in 10.0 mi WSW 10.4 mph - N/A   Clear
1:53 PM 55.9 °F - 14.0 °F 19% 29.95 in 10.0 mi WNW 9.2 mph - N/A   Clear
5:53 PM 43.0 °F 36.0 °F 19.0 °F 38% 30.05 in 10.0 mi NW 13.8 mph - N/A   Clear
6:38 PM 44.6 °F 38.1 °F 21.2 °F 39% 29.99 in 10.0 mi North 13.8 mph - N/A   Clear
6:53 PM 43.0 °F 36.0 °F 21.0 °F 42% 30.05 in 10.0 mi NNW 13.8 mph - N/A   Clear
8:53 PM 39.0 °F 31.0 °F 19.9 °F 46% 30.06 in 10.0 mi NNW 13.8 mph - N/A   Clear
10:53 PM 43.0 °F 34.8 °F 19.9 °F 40% 30.03 in 10.0 mi North 18.4 mph - N/A   Clear
11:53 PM 45.0 °F 36.0 °F 19.9 °F 37% 30.01 in 10.0 mi NW 25.3 mph 36.8 mph N/A   Clear